Temperature
19 19 19 19 19 18 18 18 18 18 18 18 17 17 17 17 17 17 17 17 17 16 16 16 16 17 16 16 16 16 17 17 17 17 17 16 16 16 16 16 16 16 16
19 19 19 18 18 18 18 18 18 18 17 17 17 17 17 17 17 17 17 16 16 16 16 16 16 16 16 16 16 16 16 16 16 16 16 16 16 16 16 16 16 16 16
18 18 18 18 18 18 18 17 17 17 17 17 17 17 17 17 17 16 16 16 16 16 16 16 16 16 16 16 16 16 16 16 16 16 16 16 16 16 16 16 15 16 15
18 18 18 18 18 17 17 17 17 17 17 17 17 16 16 16 16 16 16 16 16 16 16 16 16 16 16 16 16 16 16 16 16 16 16 16 16 16 16 16 16 15 15
18 18 18 17 17 17 17 17 17 17 16 16 16 16 16 16 16 16 16 16 16 15 16 16 16 16 16 16 16 16 16 16 16 16 16 16 16 16 15 15 15 15 15
18 18 17 17 17 17 17 17 16 16 16 16 16 16 16 16 16 16 16 15 15 15 15 15 15 15 16 16 16 16 16 16 15 16 16 16 16 15 15 15 15 15 15
18 17 17 17 17 17 17 16 16 16 16 16 16 16 16 16 16 16 16 15 15 15 15 15 15 15 15 15 15 15 16 16 16 15 15 15 15 15 15 15 15 15 15
17 17 17 17 17 17 16 16 16 16 16 16 16 15 15 15 16 16 16 15 15 15 15 15 15 15 15 15 15 15 15 15 15 15 15 15 15 15 15 15 15 14 15
17 17 16 16 16 16 16 16 16 15 15 15 15 15 15 15 15 15 15 15 15 15 15 15 15 15 15 15 15 15 15 15 15 15 15 15 15 15 15 14 14 14 15
16 16 16 16 16 16 16 16 15 15 15 15 15 15 15 15 15 15 15 15 15 15 15 15 15 15 15 15 15 14 14 15 14 14 14 15 15 15 15 14 14 14 15
16 16 16 16 16 15 15 15 15 15 15 15 15 15 15 15 15 15 15 15 14 14 15 15 15 15 15 15 15 14 14 14 14 14 14 14 14 14 14 14 14 14 14
16 16 15 15 15 15 15 15 15 15 15 15 15 15 15 15 15 15 15 15 15 14 14 14 15 15 15 15 15 14 14 14 14 14 14 14 14 14 14 14 14 13 13
15 15 15 15 15 15 15 15 15 15 15 15 15 15 15 15 15 14 14 14 14 14 14 14 14 14 14 14 14 14 14 14 14 14 14 14 14 14 14 13 13 13 13
15 15 15 14 14 14 14 14 14 14 14 14 14 14 14 14 14 14 14 14 14 14 14 14 14 14 14 14 14 14 14 14 14 13 14 13 13 13 13 13 13 13 13
15 14 14 14 14 14 14 14 14 14 14 14 14 13 13 14 14 13 13 13 13 13 13 13 13 13 13 13 13 13 13 13 13 13 13 13 13 13 13 13 13 13 13
14 14 14 14 14 14 14 14 14 14 13 13 13 13 13 13 13 13 13 13 13 13 13 12 13 13 13 13 13 13 13 13 13 13 13 13 13 13 13 13 13 13 12
14 14 14 14 14 14 14 14 13 13 13 13 13 13 13 13 13 13 13 13 13 13 12 12 12 12 12 12 12 12 12 12 12 12 12 12 12 12 12 12 12 12 12
14 14 14 13 13 13 13 13 13 13 13 13 13 13 12 12 12 12 12 12 12 12 12 12 12 12 12 12 12 12 12 12 12 12 12 12 12 12 12 12 12 12 12
13 13 13 13 13 13 13 13 13 13 13 12 12 12 12 12 12 12 12 12 11 11 11 11 11 11 11 11 11 11 11 11 11 11 11 11 11 11 11 11 11 11 11
13 13 12 12 13 12 12 12 13 12 12 12 12 12 12 11 11 11 11 11 11 11 11 11 10 10 10 10 10 10 11 11 11 11 11 11 11 11 11 11 11 11 11
13 13 12 12 12 12 12 12 12 12 12 12 12 11 11 11 11 11 11 10 10 10 10 10 10 10 10 10 10 10 10 10 10 10 10 10 10 10 10 10 10 10 10
12 12 12 12 11 11 11 11 11 11 11 11 11 11 10 10 10 10 10 10 10 10 10 10 10 10 10 10 10 9 9 9 9 9 9 9 9 9 9 10 10 10 10
12 12 12 12 11 11 11 11 11 11 11 11 11 10 10 10 10 10 10 9 9 9 9 9 9 9 9 9 9 9 9 9 9 9 9 9 9 9 9 9 9 9 9
12 12 12 11 11 11 11 11 11 11 11 10 10 10 10 9 9 9 9 9 9 9 9 9 9 9 8 8 8 9 9 9 9 8 8 8 8 8 9 9 9 9 9
11 11 11 11 11 11 11 10 10 10 10 10 10 10 9 9 9 9 9 9 9 8 8 8 8 8 8 8 8 8 8 8 8 8 8 8 8 8 8 8 8 8 8
11 11 11 11 11 10 10 10 10 10 10 10 9 9 9 9 9 9 8 8 8 8 8 8 8 8 8 8 8 8 8 8 8 8 8 7 7 8 8 8 8 8 8
Wind_Speed
0 0 1 1 1 2 2 2 3 3 3 2 3 3 3 3 3 3 4 4 4 4 4 4 5 4 3 3 3 3 4 4 4 3 3 2 4 5 4 6 7 8 9
0 1 1 2 2 3 3 3 3 3 3 3 3 3 3 3 3 4 4 4 4 5 5 4 5 4 4 4 3 4 3 4 5 5 4 3 5 5 5 6 6 7 7
1 1 2 2 3 3 4 3 3 3 4 3 3 3 3 3 4 4 4 4 5 5 4 4 4 4 5 4 5 4 4 4 4 5 5 3 4 4 5 6 6 5 7
2 2 2 3 3 3 4 4 4 4 4 4 4 4 4 4 4 4 4 4 5 5 4 4 5 5 5 5 5 5 5 5 5 5 5 4 4 4 4 5 5 6 6
2 3 3 3 4 4 4 4 4 4 5 4 5 4 5 5 4 3 4 5 5 5 5 5 5 5 5 5 5 5 5 5 5 5 6 5 4 4 5 5 5 5 5
2 3 3 3 3 4 4 4 4 5 5 5 5 5 5 4 1 2 5 6 5 6 6 6 6 6 6 7 7 6 6 7 7 6 6 6 5 5 5 6 5 5 5
2 3 3 3 3 4 5 4 4 5 5 5 6 6 6 5 3 4 6 7 7 6 6 6 6 5 5 6 7 9 9 9 8 8 8 7 6 5 5 7 6 7 7
2 3 4 4 4 4 5 5 5 5 5 6 6 6 6 5 5 6 7 8 7 7 7 7 7 6 6 6 7 7 8 8 8 9 8 8 7 5 6 7 7 8 8
3 3 4 4 5 5 5 6 5 5 6 6 6 6 6 5 5 5 6 6 6 7 7 7 8 8 4 5 8 8 8 8 8 9 9 8 6 6 7 6 7 7 7
3 3 4 4 5 5 6 6 6 6 6 7 6 6 6 6 5 6 7 6 6 7 7 8 8 8 5 6 8 8 8 8 7 7 8 9 10 9 10 9 8 8 8
4 3 4 4 5 5 5 5 5 6 6 6 6 6 6 6 5 6 7 7 7 7 7 7 6 8 8 9 9 9 9 8 8 8 8 8 8 8 9 9 9 9 9
4 4 4 4 5 4 5 5 5 5 6 6 6 6 5 5 5 5 7 9 9 8 8 7 5 5 8 10 9 9 9 9 8 8 8 7 7 7 7 7 8 9 9
4 4 4 5 5 5 5 5 4 4 5 5 5 5 5 4 3 5 7 8 9 8 7 6 6 6 8 9 11 11 9 8 8 8 8 7 7 7 6 6 7 7 9
4 5 5 5 5 4 5 5 5 4 5 5 5 5 5 4 4 4 4 4 6 6 6 5 7 8 8 8 6 7 7 7 7 8 8 6 6 6 6 6 6 5 6
5 5 5 4 4 4 4 4 5 4 4 5 6 6 6 5 4 5 5 5 5 4 5 5 5 5 5 5 5 5 6 6 7 7 7 7 6 6 6 5 5 6 6
5 5 5 4 4 4 4 4 2 4 3 4 5 6 5 5 6 6 6 6 6 5 4 4 5 5 6 6 5 5 5 6 6 6 6 6 6 6 6 5 5 6 6
5 5 5 5 5 5 5 5 5 4 3 4 5 5 5 6 6 6 6 5 5 4 4 5 5 5 6 6 6 6 6 5 5 5 5 5 6 6 5 5 5 5 5
6 4 5 5 5 5 5 5 5 6 6 5 3 3 4 5 5 5 5 3 3 3 4 5 5 5 5 6 6 6 6 5 4 4 5 5 5 5 5 5 5 5 5
5 4 4 5 5 5 5 5 5 5 5 6 5 2 1 2 3 3 2 3 4 4 4 4 5 5 5 5 5 5 5 5 5 5 4 5 5 5 5 5 5 5 6
4 3 4 5 4 4 4 4 5 5 5 5 5 5 3 3 3 3 2 3 4 4 4 4 4 5 5 5 5 5 4 4 4 4 4 4 4 5 5 6 5 5 5
5 3 3 5 4 4 4 5 5 5 5 5 5 4 4 5 5 4 4 4 4 5 5 5 4 4 4 4 4 4 4 4 4 3 4 4 4 4 5 5 5 5 5
5 4 4 4 4 4 5 5 5 5 5 5 5 3 2 4 4 4 4 4 4 4 4 5 5 4 4 4 4 4 4 3 3 4 4 4 4 4 5 5 5 5 5
5 5 4 4 4 3 4 4 4 5 5 5 4 4 3 4 4 4 4 4 4 4 4 4 4 4 4 4 4 4 4 4 4 5 4 4 4 4 4 5 5 6 5
5 5 5 4 4 4 4 4 4 4 5 5 4 4 4 4 4 4 4 4 4 4 4 4 4 5 6 5 4 4 4 5 6 5 5 5 5 5 4 4 5 5 5
4 4 5 5 4 4 4 4 4 4 4 4 5 5 5 4 4 4 4 3 4 4 5 4 4 4 5 6 6 6 7 7 6 6 5 5 6 5 5 5 4 5 5
4 4 4 4 4 4 4 4 4 5 5 5 5 4 4 4 4 4 4 4 4 4 4 4 5 5 5 5 6 7 6 6 7 8 6 5 5 5 5 4 5 5 5
Wind_Direction
160 325 332 319 318 308 304 307 305 306 309 302 293 285 276 263 248 240 248 235 233 234 237 233 236 250 242 239 241 240 245 253 252 258 237 211 217 241 211 227 223 219 213
239 278 296 302 305 300 301 300 297 296 294 293 286 273 264 260 253 248 251 247 241 240 239 240 242 236 235 241 242 240 242 246 245 248 246 227 224 230 225 233 230 225 227
288 284 297 298 301 302 304 298 294 288 290 291 283 276 271 267 257 256 256 255 249 247 245 241 243 240 236 239 240 242 244 244 244 248 246 232 230 224 225 231 233 235 238
301 289 287 291 294 297 296 289 286 282 281 284 280 276 271 264 258 258 258 258 255 255 253 245 242 238 236 239 234 236 244 248 245 250 251 238 233 220 227 236 235 225 237
289 289 294 291 290 290 290 283 280 278 276 276 274 271 269 260 255 263 259 252 252 251 248 245 242 238 244 244 248 237 237 243 245 246 247 245 239 228 236 243 246 242 233
286 296 300 293 293 296 292 286 279 276 278 274 269 267 265 266 311 289 275 263 254 250 250 248 241 231 229 224 242 249 246 243 248 249 247 250 248 243 248 254 255 254 251
297 300 294 291 294 293 293 291 282 277 274 272 271 267 264 259 226 245 261 264 255 250 250 253 254 245 234 243 234 230 238 241 244 251 258 258 255 251 254 256 252 255 259
299 302 301 297 291 289 288 288 284 280 277 274 272 270 267 256 215 228 250 252 255 251 249 250 254 256 251 251 252 245 245 242 236 240 255 259 262 262 252 253 257 252 251
309 306 306 299 294 290 287 289 287 282 278 276 274 273 271 263 223 223 242 252 249 250 251 250 252 253 238 243 250 251 253 253 237 231 245 258 272 263 257 255 251 250 254
312 306 300 293 291 289 289 287 285 279 273 275 274 272 270 269 234 222 234 255 253 253 246 243 235 245 239 220 242 250 255 259 262 248 237 239 243 236 225 238 248 252 259
316 309 302 296 287 286 290 291 289 283 282 280 279 274 267 266 245 221 229 255 262 259 258 254 242 202 223 226 240 250 255 264 262 258 252 246 241 238 233 231 239 248 257
314 307 302 299 294 298 297 295 293 290 284 281 278 277 273 263 253 230 224 243 266 264 266 267 262 202 219 228 237 250 256 256 256 256 252 250 248 248 246 243 241 244 251
311 303 297 295 294 295 290 291 289 286 289 293 291 288 290 293 268 219 224 242 251 255 267 284 287 248 238 236 231 237 242 245 250 250 251 251 251 253 255 248 243 241 246
309 307 300 294 292 291 289 289 292 299 299 299 298 298 297 296 300 296 276 260 244 251 269 266 244 239 243 260 256 235 239 246 250 251 253 258 261 256 250 252 251 243 250
311 306 299 297 300 296 289 291 291 298 303 296 300 300 299 299 324 335 306 294 294 299 295 278 275 270 260 254 254 255 251 247 245 250 252 252 252 253 253 251 253 252 251
307 305 301 298 301 297 299 298 306 288 292 273 283 290 301 316 325 316 306 305 306 301 283 273 276 276 275 276 275 268 257 253 254 253 249 252 254 256 256 255 253 252 254
309 306 301 300 298 295 297 299 300 298 260 252 257 268 281 302 313 309 297 287 275 248 253 270 275 276 276 276 276 275 272 265 258 257 257 257 257 258 257 256 256 258 259
306 305 298 298 299 299 299 300 303 305 305 306 272 231 251 274 292 299 292 281 279 247 265 275 281 283 281 279 279 278 280 283 277 266 260 262 263 261 263 264 260 263 266
309 316 313 306 302 305 307 304 304 308 308 309 315 325 259 266 258 282 268 294 301 293 288 291 293 293 293 292 291 290 287 285 286 281 274 266 262 262 264 268 267 258 259
297 308 304 302 303 307 304 303 307 309 309 310 313 323 334 327 321 322 310 311 308 306 305 304 304 303 302 302 299 296 291 288 286 281 279 277 273 268 267 266 272 271 263
300 294 274 295 305 307 307 304 303 303 305 308 310 333 339 310 310 316 314 312 313 315 314 311 311 310 307 306 305 304 301 298 294 296 291 284 283 281 276 272 272 271 270
294 292 290 292 292 297 301 302 300 300 303 304 309 323 322 301 308 312 317 320 320 321 326 321 319 321 323 320 316 313 309 308 304 297 295 291 279 276 279 276 272 271 269
285 292 291 288 290 285 284 292 299 301 301 302 307 313 309 304 307 313 318 323 328 327 329 324 321 327 330 326 324 318 309 302 298 297 292 290 289 284 280 276 274 275 274
287 291 296 296 294 295 294 295 298 302 305 311 312 310 310 311 311 318 322 323 321 322 325 324 322 327 328 327 327 326 333 328 310 292 291 287 282 283 284 281 279 281 281
300 301 300 299 297 297 299 300 302 304 309 313 312 313 317 318 317 317 317 320 320 325 329 329 329 332 334 337 339 344 358 351 332 312 289 282 281 281 287 288 286 284 282
307 307 308 309 308 306 302 303 307 312 310 311 311 313 315 316 316 318 323 330 329 330 332 338 345 345 346 350 358 359 359 349 337 322 301 285 287 289 293 291 291 288 291
Height
1529 1529 1528 1528 1527 1526 1526 1525 1523 1522 1521 1520 1520 1519 1518 1517 1517 1517 1517 1517 1517 1517 1517 1517 1517 1517 1518 1519 1519 1519 1519 1520 1520 1520 1520 1520 1519 1519 1519 1519 1520 1519 1519
1528 1528 1527 1526 1526 1525 1524 1523 1522 1521 1520 1519 1517 1516 1516 1515 1515 1515 1515 1515 1514 1514 1514 1514 1514 1515 1515 1516 1516 1516 1517 1517 1517 1517 1518 1517 1517 1517 1516 1516 1517 1517 1517
1527 1526 1526 1525 1524 1523 1522 1521 1520 1518 1517 1517 1515 1514 1513 1513 1513 1512 1512 1512 1512 1512 1512 1512 1512 1512 1512 1513 1513 1514 1514 1514 1514 1515 1515 1515 1514 1514 1514 1514 1514 1513 1514
1525 1525 1524 1523 1522 1521 1519 1518 1517 1516 1515 1514 1513 1512 1512 1511 1510 1510 1509 1509 1509 1509 1509 1509 1509 1509 1509 1510 1510 1510 1511 1511 1511 1511 1512 1512 1511 1511 1511 1511 1511 1510 1510
1523 1523 1522 1521 1519 1518 1517 1516 1515 1514 1513 1512 1511 1510 1509 1509 1508 1507 1507 1507 1506 1506 1506 1506 1506 1506 1506 1507 1507 1507 1508 1508 1508 1508 1508 1508 1508 1508 1508 1508 1508 1507 1507
1521 1520 1519 1518 1517 1516 1515 1513 1512 1511 1510 1509 1508 1507 1507 1507 1506 1505 1504 1504 1503 1503 1503 1503 1503 1503 1503 1503 1503 1504 1504 1504 1504 1505 1505 1505 1504 1504 1504 1504 1504 1504 1504
1518 1517 1516 1515 1514 1513 1512 1511 1509 1508 1507 1506 1505 1504 1503 1503 1502 1501 1501 1500 1500 1499 1499 1499 1500 1500 1499 1499 1499 1499 1500 1500 1500 1500 1501 1500 1500 1500 1500 1500 1500 1500 1500
1516 1515 1514 1513 1511 1510 1509 1508 1506 1505 1504 1503 1502 1501 1500 1499 1498 1498 1497 1497 1496 1496 1496 1496 1496 1496 1496 1495 1495 1496 1495 1496 1495 1496 1496 1496 1496 1496 1496 1496 1496 1495 1495
1514 1512 1511 1510 1509 1508 1506 1505 1503 1502 1501 1500 1499 1497 1496 1495 1494 1494 1493 1493 1493 1492 1492 1492 1492 1492 1491 1491 1492 1491 1491 1491 1491 1491 1491 1491 1491 1491 1491 1492 1492 1492 1491
1511 1510 1509 1507 1506 1505 1503 1502 1501 1499 1498 1497 1495 1494 1493 1491 1491 1490 1490 1490 1489 1489 1489 1488 1487 1487 1487 1487 1487 1487 1486 1486 1487 1487 1486 1486 1486 1486 1486 1486 1487 1487 1486
1509 1507 1506 1505 1503 1502 1501 1499 1497 1496 1495 1493 1492 1490 1489 1488 1487 1486 1486 1485 1485 1485 1485 1485 1484 1483 1482 1482 1482 1482 1481 1482 1482 1482 1481 1481 1481 1481 1481 1481 1481 1481 1481
1506 1505 1503 1502 1501 1500 1498 1496 1494 1493 1491 1490 1488 1487 1486 1484 1483 1482 1482 1481 1481 1480 1480 1480 1479 1478 1477 1477 1477 1476 1476 1477 1477 1477 1476 1476 1476 1476 1476 1476 1475 1475 1475
1503 1502 1500 1499 1498 1496 1495 1494 1492 1490 1489 1487 1486 1484 1483 1481 1479 1478 1477 1476 1476 1475 1475 1474 1473 1473 1472 1471 1471 1471 1471 1471 1471 1471 1471 1471 1471 1471 1471 1470 1470 1469 1469
1501 1499 1498 1496 1495 1493 1492 1491 1490 1488 1486 1484 1483 1481 1479 1478 1476 1475 1474 1473 1472 1471 1470 1469 1468 1467 1467 1466 1466 1465 1465 1465 1465 1465 1465 1465 1466 1465 1465 1465 1465 1464 1464
1498 1497 1495 1494 1493 1491 1489 1488 1486 1485 1483 1482 1480 1479 1477 1475 1473 1472 1470 1469 1469 1467 1466 1465 1464 1464 1463 1462 1462 1461 1461 1461 1460 1460 1460 1460 1460 1460 1460 1460 1459 1459 1459
1496 1494 1493 1492 1490 1489 1487 1485 1483 1481 1480 1478 1476 1475 1473 1472 1469 1468 1466 1465 1464 1463 1462 1461 1460 1460 1459 1458 1458 1457 1457 1456 1455 1455 1455 1455 1454 1454 1455 1455 1454 1454 1454
1493 1492 1491 1489 1488 1486 1484 1482 1480 1479 1477 1475 1473 1471 1469 1468 1466 1464 1463 1462 1461 1460 1459 1457 1457 1456 1455 1454 1454 1453 1452 1451 1451 1450 1450 1450 1450 1450 1450 1449 1449 1449 1449
1490 1489 1487 1486 1485 1483 1482 1480 1478 1476 1474 1472 1470 1468 1466 1464 1463 1461 1460 1458 1457 1456 1455 1454 1453 1452 1451 1450 1449 1449 1448 1447 1447 1446 1446 1446 1446 1446 1445 1445 1445 1445 1444
1488 1486 1485 1483 1482 1481 1479 1478 1476 1474 1472 1470 1468 1466 1464 1462 1460 1458 1457 1456 1455 1454 1453 1451 1450 1449 1448 1447 1446 1445 1444 1443 1443 1442 1442 1442 1442 1441 1441 1441 1441 1440 1440
1485 1483 1482 1481 1479 1478 1476 1475 1474 1472 1470 1468 1466 1464 1462 1460 1458 1457 1455 1454 1452 1451 1450 1449 1447 1446 1445 1444 1442 1441 1440 1439 1439 1438 1438 1438 1438 1437 1437 1436 1436 1436 1435
1483 1481 1479 1478 1477 1476 1474 1472 1471 1470 1468 1466 1465 1462 1460 1459 1457 1456 1454 1453 1451 1450 1448 1446 1445 1444 1442 1441 1440 1438 1437 1436 1435 1435 1434 1434 1434 1433 1433 1432 1432 1432 1431
1480 1479 1477 1476 1474 1473 1471 1470 1469 1467 1466 1464 1462 1460 1458 1457 1456 1454 1453 1451 1449 1448 1446 1445 1443 1442 1440 1439 1437 1436 1435 1434 1433 1432 1431 1431 1430 1430 1429 1429 1428 1428 1427
1477 1476 1474 1473 1472 1470 1469 1468 1466 1465 1463 1462 1460 1458 1456 1455 1454 1453 1451 1449 1447 1445 1444 1442 1440 1439 1437 1436 1434 1433 1432 1431 1430 1429 1428 1427 1427 1426 1426 1425 1425 1424 1424
1474 1473 1472 1471 1469 1468 1467 1465 1464 1462 1461 1460 1458 1457 1455 1453 1452 1450 1448 1447 1445 1443 1441 1439 1438 1436 1434 1432 1431 1429 1428 1427 1426 1425 1424 1424 1423 1423 1422 1422 1421 1421 1420
1471 1470 1469 1468 1467 1465 1464 1462 1461 1460 1458 1457 1456 1454 1453 1451 1449 1448 1446 1444 1442 1440 1438 1437 1435 1433 1431 1429 1427 1426 1424 1423 1422 1421 1420 1420 1420 1420 1419 1419 1418 1417 1417
1468 1467 1466 1465 1464 1463 1461 1460 1459 1457 1456 1455 1453 1452 1450 1448 1447 1445 1443 1441 1440 1438 1436 1434 1431 1429 1428 1426 1424 1422 1421 1420 1418 1418 1417 1417 1417 1416 1416 1415 1414 1414 1413